Tracking 29892 objects as of 21-Nov-2024
HD Live streaming from Space Station
objects crossing your sky now

NOAA 16 DEB

Track NOAA 16 DEB now!
10-day predictions


NORAD ID: 41069
Int'l Code: 2000-055AC
Perigee: 685.8 km
Apogee: 850.4 km
Inclination: 98.6 °
Period: 100.1 minutes
Semi major axis: 7139 km
RCS: Unknown
Launch date: September 21, 2000
Source: United States (US)
Launch site: AIR FORCE WESTERN TEST RANGE (AFWTR)

Note: This is SATELLITE DEBRIS
Your satellite tracking list
Your tracking list is empty




NASA's NSSDC Master Catalog

Two Line Element Set (TLE):
1 41069U 00055AC  24325.26461650  .00003767  00000-0  11367-2 0  9999
2 41069  98.5828  63.9778 0115257  97.4045 264.0257 14.39261095469940
Source of the keplerian elements: AFSPC